SCP
0 0 0 0 0 0 0 0 0 0 0 0 0 0 0 0 0 0 0 0 0 0 0 0 0 0 0 0 0 0 0 0 0 0 0 0 0 0 0 0 0 0 0
0 0 0 0 0 0 0 0 0 0 0 0 0 0 0 0 0 0 0 0 0 0 0 0 0 0 0 0 0 0 0 0 0 0 0 0 0 0 0 0 0 0 0
0 0 0 0 0 0 0 0 0 0 0 0 0 0 0 0 0 0 0 0 0 0 0 0 0 0 0 0 0 0 0 0 0 0 0 0 0 0 0 0 0 0 0
0 0 0 0 0 0 0 0 0 0 0 0 0 0 0 0 0 0 0 0 0 0 0 0 0 0 0 0 0 0 0 0 0 0 0 0 0 0 0 0 0 0 0
0 0 0 0 0 0 0 0 0 0 0 0 0 0 0 0 0 0 0 0 0 0 0 0 0 0 0 0 0 0 0 0 0 0 0 0 0 0 0 0 0 0 0
0 0 0 0 0 0 0 0 0 0 0 0 0 0 0 0 0 0 0 0 0 0 0 0 0 0 0 0 0 0 0 0 0 0 0 0 0 0 0 0 0 0 0
0 0 0 0 0 0 0 0 0 0 0 0 0 0 0 0 0 0 0 0 0 0 0 0 0 0 0 0 0 0 0 0 0 0 0 0 0 0 0 0 0 0 0
0 0 0 0 0 0 0 0 0 0 0 0 0 0 0 0 0 0 0 0 0 0 0 0 0 0 0 0 0 0 0 0 0 0 0 0 0 0 0 0 0 0 0
0 0 0 0 0 0 0 0 0 0 0 0 0 0 0 0 0 0 0 0 0 0 0 0 0 0 0 0 0 0 0 0 0 0 0 0 0 0 0 0 0 0 0
0 0 0 0 0 0 0 0 0 0 0 0 0 0 0 0 0 0 0 0 0 0 0 0 0 0 0 0 0 0 0 0 0 0 0 0 0 0 0 0 0 0 0
0 0 0 0 0 0 0 0 0 0 0 0 0 0 0 0 0 0 0 0 0 0 0 0 0 0 0 0 0 0 0 0 0 0 0 0 0 0 0 0 0 0 0
0 0 0 0 0 0 0 0 0 0 0 0 0 0 0 0 0 0 0 0 0 0 0 0 0 0 0 0 0 0 0 0 0 0 0 0 0 0 0 0 0 0 0
0 0 0 0 0 0 0 0 0 0 0 0 0 0 0 0 0 0 0 0 0 0 0 0 0 0 0 0 0 0 0 0 0 0 0 0 0 0 0 0 0 0 0
0 0 0 0 0 0 0 0 0 0 0 0 0 0 0 0 0 0 0 0 0 0 0 0 0 0 0 0 0 0 0 0 0 0 0 0 0 0 0 0 0 0 0
0 0 0 0 0 0 0 0 0 0 0 0 0 0 0 0 0 0 0 0 0 0 0 0 0 0 0 0 0 0 0 0 0 0 0 0 0 0 0 0 0 0 0
0 0 0 0 0 0 0 0 0 0 0 0 0 0 0 0 0 0 0 0 0 0 0 0 0 0 0 0 0 0 0 0 0 0 0 0 0 0 0 0 0 0 0
0 0 0 0 0 0 0 0 0 0 0 0 0 0 0 0 0 0 0 0 0 0 0 0 0 0 0 0 0 0 0 0 0 0 0 0 0 0 0 0 0 0 0
0 0 0 0 0 0 0 0 0 0 0 0 0 0 0 0 0 0 0 0 0 0 0 0 0 0 0 0 0 0 0 0 0 0 0 0 0 0 0 0 0 0 0
0 0 0 0 0 0 0 0 0 0 0 0 0 0 0 0 0 0 0 0 0 0 0 0 0 0 0 0 0 0 0 0 0 0 0 0 0 0 0 0 0 0 0
0 0 0 0 0 0 0 0 0 0 0 0 0 0 0 0 0 0 0 0 0 0 0 0 0 0 0 0 0 0 0 0 0 0 0 0 0 0 0 0 0 0 0
0 0 0 0 0 0 0 0 0 0 0 0 0 0 0 0 0 0 0 0 0 0 0 0 0 0 0 0 0 0 0 0 0 0 0 0 0 0 0 0 0 0 0
0 0 0 0 0 0 0 0 0 0 0 0 0 0 0 0 0 0 0 0 0 0 0 0 0 0 0 0 0 0 0 0 0 0 0 0 0 0 0 0 0 0 0
0 0 0 0 0 0 0 0 0 0 0 0 0 0 0 0 0 0 0 0 0 0 0 0 0 0 0 0 0 0 0 0 0 0 0 0 0 0 0 0 0 0 0
0 0 0 0 0 0 0 0 0 0 0 0 0 0 0 0 0 0 0 0 0 0 0 0 0 0 0 0 0 0 0 0 0 0 0 0 0 0 0 0 0 0 0
0 0 0 0 0 0 0 0 0 0 0 0 0 0 0 0 0 0 0 0 0 0 0 0 0 0 0 0 0 0 0 0 0 0 0 0 0 0 0 0 0 0 0
0 0 0 0 0 0 0 0 0 0 0 0 0 0 0 0 0 0 0 0 0 0 0 0 0 0 0 0 0 0 0 0 0 0 0 0 0 0 0 0 0 0 0
Wind_Speed
6 6 7 6 6 6 5 5 5 4 4 4 4 4 3 3 3 3 3 3 3 3 3 4 5 5 4 4 5 5 5 6 10 10 9 10 12 12 10 10 10 10 9
5 5 6 6 6 6 5 5 5 5 4 4 4 4 3 3 3 3 3 3 4 4 4 5 5 4 6 5 5 6 6 7 9 12 10 10 12 12 11 12 10 9 9
4 4 5 6 6 6 5 5 5 4 4 4 4 4 3 3 3 3 3 4 4 4 5 5 6 6 6 5 6 6 6 6 7 9 10 9 9 9 11 11 11 9 9
3 4 4 6 6 5 5 5 4 4 4 4 3 3 3 3 3 3 3 4 4 4 5 5 6 6 7 7 6 7 7 7 7 8 8 8 8 9 9 9 10 9 9
3 3 4 4 5 5 5 4 4 4 4 3 3 2 2 2 2 3 3 4 4 4 5 5 6 6 8 7 6 7 7 6 7 7 8 8 8 8 8 8 9 10 10
2 2 3 4 4 4 4 4 4 4 3 3 3 3 2 2 2 3 3 3 4 4 5 5 5 6 7 9 10 10 9 8 8 7 7 8 10 9 9 8 9 9 8
2 2 2 3 4 4 4 4 4 4 3 3 3 3 3 2 2 3 4 3 4 4 5 5 5 5 7 6 7 9 9 10 10 9 9 10 10 10 10 10 9 9 9
2 1 2 3 3 4 4 4 4 3 3 2 2 2 2 2 2 2 3 3 3 4 4 5 6 6 5 7 7 7 8 7 8 8 8 9 9 9 9 9 9 9 8
1 1 2 3 3 3 4 4 3 3 2 2 2 2 2 2 1 2 3 3 3 4 4 5 5 6 7 9 7 7 8 7 6 8 10 10 12 11 9 6 6 6 6
1 1 2 2 3 3 3 3 3 2 2 2 1 2 2 2 1 2 3 2 3 3 4 4 5 6 8 9 7 7 7 8 8 8 7 7 7 7 9 6 5 5 6
0 1 1 2 2 3 3 2 3 2 2 2 1 1 1 1 1 2 3 2 3 3 3 3 3 6 8 8 8 6 7 9 7 6 6 6 6 5 5 5 5 5 5
1 1 1 2 2 2 3 2 2 2 2 1 1 0 0 0 1 2 3 4 4 3 3 3 3 6 8 8 7 7 8 8 4 4 5 5 5 5 5 6 6 5 5
2 2 2 2 2 2 2 2 2 2 2 1 1 0 0 1 1 2 2 3 4 3 3 4 5 6 7 5 5 7 6 4 4 4 4 5 5 6 6 5 6 5 5
2 2 2 2 2 2 1 1 1 1 2 1 1 0 1 1 1 1 1 2 3 3 2 3 5 5 4 5 5 4 3 3 4 4 4 5 5 5 5 5 5 5 4
2 2 2 2 2 2 1 1 0 0 0 1 1 1 1 1 2 3 3 2 2 2 3 2 2 3 3 3 3 4 4 4 4 4 4 4 4 5 5 5 5 5 4
2 2 2 2 1 1 2 2 3 2 2 2 1 1 1 2 3 3 3 4 4 3 2 1 2 2 3 3 4 4 4 4 4 4 4 4 4 5 5 5 5 4 4
2 2 2 1 1 1 1 1 2 2 3 3 3 3 2 2 2 2 3 3 3 2 1 1 2 3 3 3 4 4 4 4 4 4 4 4 4 4 4 5 5 5 4
2 2 2 1 1 1 1 1 1 1 1 2 3 3 3 4 3 3 3 2 2 2 1 2 2 3 3 3 4 4 4 4 4 4 4 4 4 4 4 5 5 5 5
1 1 1 1 1 1 1 1 1 1 1 1 1 2 4 4 4 4 3 1 1 1 2 2 2 3 3 3 4 4 4 4 4 4 4 4 4 4 4 4 5 7 6
1 2 1 1 1 1 1 1 1 1 1 1 1 1 2 2 2 2 2 2 2 2 2 3 3 3 3 3 4 4 4 3 4 4 4 4 4 4 4 5 5 5 4
1 2 2 1 1 1 1 1 1 1 1 1 1 2 2 1 1 2 2 2 2 2 3 3 3 3 3 3 3 4 4 4 4 4 4 4 4 4 4 4 5 4 4
1 1 1 1 1 1 1 1 1 1 1 1 1 1 3 2 1 2 2 2 2 2 3 3 3 3 3 3 4 4 4 4 4 4 4 4 4 4 4 4 4 4 4
1 1 1 1 1 2 1 1 1 1 1 1 1 1 1 2 2 2 2 2 3 3 3 3 3 3 3 4 4 3 4 4 4 4 4 4 4 4 4 4 4 4 4
1 1 1 1 1 1 1 1 1 1 1 1 1 1 2 2 2 3 3 3 3 3 3 3 3 5 6 5 4 4 4 4 5 4 5 4 4 4 3 3 3 4 3
1 1 1 1 1 1 1 1 1 1 1 1 1 1 2 2 2 3 3 3 4 3 4 4 4 4 6 6 6 5 6 7 7 5 4 3 3 4 3 3 3 3 3
1 1 1 1 1 1 1 1 0 1 1 1 1 2 2 2 3 3 3 3 3 4 4 4 5 6 7 5 6 7 7 7 6 6 3 2 3 3 3 2 3 2 2
Wind_Direction
181 180 180 180 182 184 185 186 184 178 179 184 187 189 194 204 213 224 239 247 258 269 271 275 281 282 280 279 276 272 271 274 280 290 299 306 309 310 312 312 309 309 306
176 177 179 175 177 181 182 183 180 177 179 183 184 189 197 208 219 231 245 250 261 271 277 280 283 283 281 282 281 278 277 277 281 290 299 307 308 310 312 314 313 310 307
170 171 174 174 176 181 180 178 177 176 177 179 185 194 203 214 227 240 253 256 262 270 275 279 283 284 283 286 286 285 284 284 282 287 295 302 304 311 315 313 314 312 311
164 169 175 178 179 179 176 176 176 178 178 181 190 199 209 219 230 243 257 262 268 275 277 278 280 281 284 289 289 290 292 293 291 290 292 300 306 313 314 315 316 318 315
163 170 178 178 174 171 170 172 173 177 179 182 188 196 208 219 229 254 265 266 271 279 282 281 280 287 292 291 292 297 298 294 294 293 294 301 307 315 315 315 313 316 314
161 168 168 170 170 170 170 169 172 175 176 180 189 197 210 223 247 268 279 267 271 276 285 290 290 285 290 290 293 297 297 292 294 293 294 297 304 309 311 312 314 315 314
148 152 164 168 172 172 170 172 177 177 177 186 193 200 219 235 244 265 284 278 273 278 286 293 298 298 297 295 297 296 294 288 284 285 289 295 301 307 310 310 310 308 305
152 157 169 168 170 174 175 178 182 181 182 189 199 207 227 243 254 276 288 276 280 284 286 290 296 304 308 307 306 304 302 299 297 294 294 297 301 305 305 301 301 302 299
166 176 175 175 172 178 183 181 180 179 183 193 204 210 233 246 259 293 296 282 281 289 292 293 296 300 312 314 309 306 306 309 312 307 306 307 312 313 314 310 312 312 311
187 189 176 180 181 185 185 176 172 176 184 187 201 215 233 250 272 289 296 278 283 293 297 296 298 305 313 313 309 306 307 314 319 318 317 320 321 325 329 322 313 308 310
136 143 152 169 178 176 170 164 159 160 168 179 192 216 238 266 249 271 291 286 285 293 298 301 307 314 315 314 310 304 309 315 313 317 320 324 328 331 334 331 323 310 305
123 128 135 146 154 164 155 149 152 155 161 168 167 158 290 293 296 292 299 308 312 298 301 308 317 321 321 318 316 321 322 317 313 319 323 327 329 330 329 327 322 316 302
125 123 122 121 128 144 145 143 149 154 160 160 158 166 329 323 322 324 324 329 329 319 317 327 326 323 321 321 336 336 329 323 322 323 325 326 325 320 320 321 321 317 309
132 122 120 121 119 118 119 131 146 159 162 162 168 212 307 318 329 332 322 322 328 327 324 329 334 337 335 338 338 339 337 332 326 321 321 322 324 327 330 329 325 328 328
125 122 123 118 118 112 99 84 95 169 216 194 205 222 258 293 327 333 329 327 321 322 328 335 342 342 345 345 341 340 338 335 334 329 324 325 329 331 331 332 326 327 329
132 128 120 115 114 111 106 81 57 49 36 21 9 329 326 332 334 338 343 347 348 352 348 346 341 338 336 335 333 333 335 336 333 328 325 326 327 328 329 331 331 330 331
138 133 127 126 127 128 123 114 92 69 67 69 61 36 24 20 12 359 1 11 17 18 7 355 337 332 331 329 325 325 327 329 326 324 325 325 324 324 326 330 333 331 330
125 125 130 135 139 143 138 128 120 107 83 58 47 45 39 33 24 18 25 32 36 28 2 343 331 327 324 320 321 323 325 326 325 326 327 325 324 324 326 329 329 330 328
115 122 123 123 130 134 130 123 112 103 85 58 37 38 34 29 27 27 27 24 15 351 339 329 321 319 317 315 314 317 318 320 323 324 325 325 323 322 323 323 323 326 325
106 105 106 122 130 127 123 119 106 93 78 62 31 16 6 2 13 14 10 0 350 336 327 320 316 315 313 310 311 314 316 318 321 320 320 318 318 317 317 318 321 324 325
107 114 108 110 114 116 119 114 104 98 82 46 17 6 351 348 355 352 348 342 335 325 320 317 315 312 307 305 306 308 310 312 315 313 311 312 314 316 316 315 316 320 322
112 119 114 108 106 101 92 81 82 79 73 51 27 14 6 5 353 341 334 329 328 321 315 310 308 309 307 304 303 303 303 304 307 308 307 308 310 312 313 314 318 323 326
121 116 105 102 103 102 83 74 67 61 48 31 19 6 356 349 339 333 329 325 321 316 313 308 307 310 313 310 303 296 292 295 299 300 300 301 304 307 308 311 316 319 325
115 116 114 111 102 98 90 77 63 53 41 25 11 356 345 338 332 329 324 321 319 316 314 311 307 308 311 311 307 302 297 298 297 291 287 286 294 301 307 312 313 316 320
102 109 109 108 101 96 94 85 66 45 26 4 350 341 335 330 327 326 324 322 320 317 318 315 312 310 310 309 308 306 306 304 302 302 294 289 294 301 307 310 313 319 323
94 99 94 99 103 102 100 88 46 8 350 340 331 324 322 320 320 320 319 320 321 319 318 316 316 315 312 309 310 312 312 313 315 315 307 295 296 301 308 310 314 315 318